Weather History for Fort Benning, GA

Change the Weather History Date:

Wednesday, October 17, 2012

  Actual Average Record
Temperature  
Mean Temperature 65 °F -  
Max Temperature 79 °F 75 °F 88 °F (2011)
Min Temperature 51 °F 49 °F 35 °F (2001)
Growing Degree Days 15 (Base 50)    
Moisture  
Dew Point 53 °F    
Average Humidity 82    
Maximum Humidity 100    
Minimum Humidity 39    
Precipitation  
Precipitation 0.00 in - - ()
Sea Level Pressure  
Sea Level Pressure 29.90 in    
Wind  
Wind Speed 2 mph (SE)    
Max Wind Speed 13 mph    
Max Gust Speed -    
Visibility 8 miles    
Events      
Averages and records for this station are not official NWS values.
T = Trace of Precipitation, MM = Missing Value Source: NWS Daily Summary

Daily Weather History Graph

Daily Weather History Graph

Search for Another Location

Airport:

Trip Planner

Search our weather history database for the weather conditions in past years. The results will help you decide how hot, cold, wet, or windy it might be!

Date:

Astronomy

Oct. 17, 2012 Rise Set
Actual Time 7:45 AM EDT 7:04 PM EDT
Civil Twilight 7:20 AM EDT 7:29 PM EDT
Nautical Twilight 6:52 AM EDT 7:57 PM EDT
Astronomical Twilight 6:23 AM EDT 8:26 PM EDT
Moon 10:08 AM EDT (10/17) 8:50 PM EDT (10/17)
Length of Visible Light 12h 08m
Length of Day
11h 18m
Waxing Crescent, 7% of the Moon is Illuminated
Oct 17
Waxing Crescent
Oct 21
First Quarter
Oct 29
Full
Nov 6
Last Quarter
Nov 13
New

Hourly Weather History & Observations

Time (EDT) Temp. Dew Point Humidity Pressure Visibility Wind Dir Wind Speed Gust Speed Precip Events Conditions
12:55 AM 54.3 °F 53.6 °F 97% 29.92 in 10.0 mi Calm Calm - N/A   Clear
1:55 AM 54.7 °F 54.0 °F 97% 29.91 in 10.0 mi Calm Calm - N/A   Clear
2:55 AM 54.3 °F 53.8 °F 98% 29.91 in 10.0 mi Calm Calm - N/A   Clear
3:22 AM 53.6 °F 51.8 °F 94% 29.91 in 2.5 mi Calm Calm - N/A   Clear
3:30 AM 53.6 °F 53.6 °F 100% 29.91 in 3.0 mi Calm Calm - N/A   Clear
3:38 AM 53.6 °F 53.6 °F 100% 29.91 in 4.0 mi Calm Calm - N/A   Clear
3:42 AM 53.6 °F 53.6 °F 100% 29.91 in 5.0 mi Calm Calm - N/A   Clear
3:55 AM 53.2 °F 53.1 °F 99% 29.90 in 10.0 mi NNE 3.5 mph - N/A   Clear
4:55 AM 52.9 °F 52.5 °F 99% 29.90 in 10.0 mi Calm Calm - N/A   Mostly Cloudy
5:55 AM 52.9 °F 52.5 °F 99% 29.92 in 10.0 mi Calm Calm - N/A   Scattered Clouds
6:55 AM 54.1 °F 54.0 °F 99% 29.93 in 10.0 mi Calm Calm - N/A   Clear
7:55 AM 52.3 °F 51.8 °F 98% 29.95 in 10.0 mi SE 3.5 mph - N/A   Clear
8:42 AM 51.8 °F 51.8 °F 100% 29.96 in 1.2 mi North 3.5 mph - N/A   Clear
8:43 AM 51.8 °F 51.8 °F 100% 29.96 in 1.0 mi North 3.5 mph - N/A   Clear
8:44 AM 51.8 °F 51.8 °F 100% 29.95 in 0.8 mi Calm Calm - N/A   Clear
8:47 AM 51.8 °F 51.8 °F 100% 29.95 in 3.0 mi North 1.2 mph - N/A   Partly Cloudy
8:55 AM 52.7 °F 52.3 °F 99% 29.96 in 4.0 mi Calm Calm - N/A   Partly Cloudy
9:11 AM 55.4 °F 53.6 °F 94% 29.95 in 6.0 mi Calm Calm - N/A   Partly Cloudy
9:55 AM 61.3 °F 53.4 °F 75% 29.96 in 10.0 mi Calm Calm - N/A   Clear
10:55 AM 68.0 °F 54.1 °F 61% 29.96 in 10.0 mi Variable 3.5 mph - N/A   Clear
11:55 AM 73.0 °F 53.1 °F 49% 29.94 in 10.0 mi SSE 8.1 mph - N/A   Clear
12:55 PM 75.6 °F 50.5 °F 41% 29.91 in 10.0 mi SE 10.4 mph - N/A   Clear
1:55 PM 77.7 °F 51.3 °F 40% 29.88 in 10.0 mi SE 12.7 mph - N/A   Clear
2:55 PM 79.0 °F 52.3 °F 39% 29.85 in 10.0 mi South 10.4 mph - N/A   Clear
3:55 PM 79.3 °F 52.9 °F 40% 29.83 in 10.0 mi SSE 11.5 mph - N/A   Clear
4:55 PM 79.0 °F 53.2 °F 41% 29.82 in 10.0 mi South 10.4 mph - N/A   Clear
5:55 PM 77.9 °F 52.5 °F 41% 29.82 in 10.0 mi SSE 5.8 mph - N/A   Clear
6:55 PM 70.2 °F 56.3 °F 61% 29.83 in 10.0 mi SSE 4.6 mph - N/A   Clear
7:55 PM 64.2 °F 56.1 °F 75% 29.85 in 10.0 mi Calm Calm - N/A   Clear
8:55 PM 60.3 °F 56.3 °F 87% 29.86 in 10.0 mi Calm Calm - N/A   Clear
9:55 PM 54.7 °F 52.7 °F 93% 29.86 in 10.0 mi SSE 4.6 mph - N/A   Clear
10:55 PM 55.8 °F 54.1 °F 94% 29.86 in 10.0 mi SE 3.5 mph - N/A   Partly Cloudy
11:55 PM 55.2 °F 53.8 °F 95% 29.85 in 10.0 mi Calm Calm - N/A   Scattered Clouds